Location: Boiro
(42.6475°N, 8.8834°W)
Time: 04:58:01
(UTC+01:00)

Transit 4A - Pass Details

Date: 07 December 2021
Orbit: 864 x 980 km, 66.8° (Epoch: 17 January)

Event Time Altitude Azimuth Distance (km) Brightness Sun altitude
Rises 21:32:10 0° 250° (WSW) 3,469 11.7 -37.8°
Reaches altitude 10° 21:35:07 10° 264° (W) 2,549 10.9 -38.4°
Enters shadow 21:39:30 24° 312° (NW) 1,771 9.7 -39.2°
